HVN207 VVDN-VVTS

Flight info

Callsign HVN207
Flight time N/A
Altitude 38000
Route SADIN1G SADIN Q1 DOVIN DOVIN5D
Aircraft B78X/H-SDE1E2E3FGHIJ2J3J4J5M1RWXY/LB1D1

Departure

Time 2026-05-08 03:02
Airport Da Nang International Airport (VVDN)

Arrival

Time N/A
Airport Tan Son Nhat International Airport (VVTS)
Time Latitude Longitude Altitude Speed Heading
2026-05-08 02:04 16.05037 108.20205 40 ft 0 kts 82°
2026-05-08 02:52 16.05037 108.20204 40 ft 1 kts 82°
2026-05-08 02:52 16.05033 108.20177 40 ft 4 kts 82°
2026-05-08 02:52 16.05029 108.20150 40 ft 4 kts 82°
2026-05-08 02:53 16.05026 108.20127 40 ft 3 kts 84°
2026-05-08 02:53 16.05025 108.20104 40 ft 4 kts 117°
2026-05-08 02:53 16.05033 108.20090 38 ft 4 kts 163°
2026-05-08 02:53 16.05055 108.20086 39 ft 3 kts 173°
2026-05-08 02:54 16.05074 108.20083 37 ft 0 kts 173°
2026-05-08 02:56 16.05066 108.20085 39 ft 6 kts 169°
2026-05-08 02:57 16.04979 108.20099 39 ft 19 kts 171°
2026-05-08 02:57 16.04805 108.20125 39 ft 29 kts 171°
2026-05-08 02:57 16.04602 108.20154 40 ft 29 kts 172°
2026-05-08 02:57 16.04406 108.20182 39 ft 28 kts 172°
2026-05-08 02:58 16.04216 108.20210 40 ft 27 kts 173°
2026-05-08 02:58 16.04031 108.20235 40 ft 27 kts 171°
2026-05-08 02:58 16.03855 108.20261 41 ft 26 kts 174°
2026-05-08 02:58 16.03674 108.20286 40 ft 26 kts 172°
2026-05-08 02:59 16.03500 108.20315 40 ft 25 kts 179°
2026-05-08 02:59 16.03333 108.20338 39 ft 25 kts 172°
2026-05-08 02:59 16.03165 108.20362 39 ft 20 kts 173°
2026-05-08 02:59 16.03029 108.20380 39 ft 15 kts 179°
2026-05-08 03:00 16.02969 108.20365 39 ft 0 kts 207°
2026-05-08 03:00 16.02966 108.20364 39 ft 4 kts 205°
2026-05-08 03:01 16.02930 108.20325 38 ft 10 kts 243°
2026-05-08 03:01 16.02930 108.20265 37 ft 5 kts 297°
2026-05-08 03:01 16.02943 108.20256 37 ft 2 kts 328°
2026-05-08 03:01 16.02955 108.20252 37 ft 0 kts 344°
2026-05-08 03:02 16.02968 108.20249 37 ft 18 kts 345°
2026-05-08 03:02 16.03426 108.20179 39 ft 115 kts 351°
2026-05-08 03:02 16.04380 108.20020 116 ft 182 kts 351°
2026-05-08 03:02 16.05594 108.19830 1254 ft 169 kts 354°
2026-05-08 03:03 16.06816 108.19825 2209 ft 189 kts
2026-05-08 03:03 16.08206 108.19820 2951 ft 210 kts
2026-05-08 03:03 16.09714 108.19763 3713 ft 228 kts 359°
2026-05-08 03:03 16.11375 108.19698 4487 ft 248 kts 359°
2026-05-08 03:04 16.13137 108.19633 5403 ft 258 kts 359°
2026-05-08 03:04 16.14957 108.19778 6374 ft 272 kts 22°
2026-05-08 03:04 16.16526 108.20878 7493 ft 274 kts 47°
2026-05-08 03:04 16.17488 108.22642 7997 ft 285 kts 77°
2026-05-08 03:05 16.17614 108.24635 7992 ft 283 kts 91°
2026-05-08 03:05 16.17542 108.26694 7993 ft 279 kts 91°
2026-05-08 03:05 16.17537 108.28701 7989 ft 280 kts 89°
2026-05-08 03:05 16.17589 108.30752 7986 ft 280 kts 88°
2026-05-08 03:06 16.17627 108.32761 7987 ft 279 kts 89°
2026-05-08 03:06 16.17601 108.34774 7983 ft 279 kts 97°
2026-05-08 03:06 16.16913 108.36654 7987 ft 282 kts 121°
2026-05-08 03:06 16.15523 108.38090 8009 ft 284 kts 146°
2026-05-08 03:07 16.13664 108.38794 7993 ft 288 kts 171°
2026-05-08 03:07 16.11648 108.38859 7994 ft 289 kts 177°
2026-05-08 03:07 16.09639 108.38886 7998 ft 288 kts 178°
2026-05-08 03:07 16.07615 108.38910 8035 ft 290 kts 178°
2026-05-08 03:08 16.05582 108.38936 8477 ft 293 kts 177°
2026-05-08 03:08 16.03577 108.38963 9684 ft 292 kts 178°
2026-05-08 03:08 16.01471 108.38991 10764 ft 306 kts 178°
2026-05-08 03:08 15.99276 108.39020 11539 ft 327 kts 178°
2026-05-08 03:09 15.96924 108.39050 12230 ft 349 kts 178°
2026-05-08 03:09 15.94424 108.39082 12873 ft 371 kts 178°
2026-05-08 03:09 15.91794 108.39115 13597 ft 386 kts 178°
2026-05-08 03:09 15.89030 108.39151 14505 ft 393 kts 178°
2026-05-08 03:10 15.86260 108.39187 15459 ft 399 kts 178°
2026-05-08 03:10 15.83486 108.39221 16396 ft 404 kts 178°
2026-05-08 03:10 15.80662 108.39257 17316 ft 409 kts 178°
2026-05-08 03:10 15.77837 108.39293 18199 ft 414 kts 179°
2026-05-08 03:11 15.74949 108.39330 18958 ft 419 kts 179°
2026-05-08 03:11 15.72059 108.39367 19683 ft 424 kts 179°
2026-05-08 03:11 15.69035 108.39405 20427 ft 429 kts 179°
2026-05-08 03:11 15.66128 108.39442 21129 ft 433 kts 179°
2026-05-08 03:12 15.63181 108.39480 21819 ft 438 kts 179°
2026-05-08 03:12 15.60096 108.39520 22504 ft 443 kts 179°
2026-05-08 03:12 15.57032 108.39553 23146 ft 448 kts 180°
2026-05-08 03:12 15.54115 108.39214 23718 ft 453 kts 193°
2026-05-08 03:13 15.51148 108.38147 24219 ft 457 kts 205°
2026-05-08 03:13 15.48244 108.36719 24729 ft 462 kts 205°
2026-05-08 03:13 15.45317 108.35300 25237 ft 466 kts 204°
2026-05-08 03:13 15.42340 108.33919 25749 ft 470 kts 204°
2026-05-08 03:14 15.39359 108.32535 26244 ft 475 kts 204°
2026-05-08 03:14 15.36325 108.31088 26736 ft 479 kts 205°
2026-05-08 03:14 15.33306 108.29645 27216 ft 483 kts 204°
2026-05-08 03:14 15.30227 108.28198 27692 ft 487 kts 204°
2026-05-08 03:15 15.28175 108.27239 28007 ft 490 kts 204°
2026-05-08 03:15 15.24007 108.25272 28649 ft 496 kts 204°
2026-05-08 03:15 15.21907 108.24276 28935 ft 498 kts 204°
2026-05-08 03:15 15.18745 108.22782 29397 ft 502 kts 204°
2026-05-08 03:16 15.15502 108.21259 29844 ft 506 kts 204°
2026-05-08 03:16 15.12333 108.19768 30229 ft 510 kts 204°
2026-05-08 03:16 15.09036 108.18407 30590 ft 513 kts 195°
2026-05-08 03:16 15.05518 108.17720 30938 ft 515 kts 184°
2026-05-08 03:17 15.01935 108.17590 31260 ft 518 kts 181°
2026-05-08 03:17 14.98299 108.17501 31597 ft 522 kts 181°
2026-05-08 03:17 14.94675 108.17422 31909 ft 525 kts 181°
2026-05-08 03:17 14.90961 108.17346 32232 ft 528 kts 181°
2026-05-08 03:18 14.87293 108.17265 32728 ft 527 kts 181°
2026-05-08 03:18 14.83678 108.17181 33197 ft 526 kts 181°
2026-05-08 03:18 14.79963 108.17099 33687 ft 526 kts 181°
2026-05-08 03:18 14.76366 108.17023 34126 ft 526 kts 181°
2026-05-08 03:19 14.72651 108.16942 34532 ft 526 kts 181°
2026-05-08 03:19 14.68993 108.16859 34921 ft 526 kts 181°
2026-05-08 03:19 14.65375 108.16778 35295 ft 526 kts 181°
2026-05-08 03:19 14.61701 108.16699 35715 ft 526 kts 181°
2026-05-08 03:20 14.58087 108.16621 36088 ft 526 kts 181°
2026-05-08 03:20 14.54408 108.16539 36489 ft 526 kts 181°
2026-05-08 03:20 14.50726 108.16457 36899 ft 526 kts 181°
2026-05-08 03:20 14.47069 108.16377 37291 ft 526 kts 181°
2026-05-08 03:21 14.43439 108.16298 37721 ft 525 kts 182°
2026-05-08 03:21 14.40330 108.16230 37984 ft 527 kts 182°